Temperature
17 17 17 17 17 16 16 16 16 16 16 16 16 16 16 16 16 16 16 16 16 16 16 16 16 16 16 16 16 15 15 15 15 15 15 15 15 15 15 14 14 14 14
17 17 17 17 16 16 16 16 16 16 16 16 16 16 16 16 16 16 16 16 16 16 16 16 16 16 15 15 15 15 15 15 15 15 15 14 14 14 14 14 14 14 14
17 16 16 16 16 16 16 16 16 16 16 16 16 16 16 16 16 16 16 16 16 16 16 15 15 16 15 15 15 15 15 15 15 15 14 14 14 14 14 14 13 13 14
16 16 16 16 16 16 16 16 16 16 16 16 16 16 16 16 16 16 16 16 16 16 15 15 15 15 15 15 15 15 15 15 15 14 14 14 14 14 13 13 13 13 13
16 16 16 16 16 15 16 16 16 16 15 15 15 16 16 16 16 16 16 16 16 15 15 15 15 15 15 15 15 15 15 15 14 14 14 14 13 13 13 13 13 13 13
16 16 16 15 15 15 15 15 15 16 15 15 15 15 15 15 16 16 16 15 15 15 15 15 15 15 15 15 15 14 14 14 14 14 14 13 13 13 13 13 13 13 13
15 15 15 15 15 15 15 15 15 15 15 15 15 15 15 15 16 15 15 15 15 15 15 15 14 14 14 14 14 14 14 14 14 14 14 13 13 13 12 12 12 12 12
15 15 15 15 15 15 15 15 15 15 15 15 15 15 15 15 15 15 15 15 15 15 15 14 14 14 14 14 14 14 14 14 14 14 13 13 13 12 12 12 12 12 12
14 14 14 14 14 14 14 14 14 14 15 15 15 15 15 15 15 15 15 15 15 15 14 14 14 14 14 14 14 14 14 13 13 13 13 13 12 12 12 12 12 12 12
13 13 13 14 14 14 14 14 14 14 14 14 14 14 14 14 14 14 14 14 14 14 14 14 14 14 14 14 14 13 13 13 13 13 13 12 12 11 11 11 11 11 11
12 13 13 13 13 13 13 14 14 14 14 14 14 14 14 14 14 14 14 14 14 14 14 14 14 14 14 13 13 13 13 13 13 13 12 12 12 11 11 11 11 11 11
12 12 12 12 13 13 13 13 13 13 13 13 14 14 14 14 14 14 14 14 14 14 14 14 14 13 13 13 13 13 13 13 13 12 12 12 11 11 11 11 11 11 11
12 12 12 12 12 12 12 13 13 13 13 13 13 13 13 13 13 14 14 14 13 13 13 13 13 13 13 13 13 13 13 12 12 12 12 12 11 11 11 11 11 11 11
11 11 11 12 12 12 12 12 12 12 13 13 13 13 13 13 13 13 13 13 13 13 13 13 13 13 13 13 13 12 12 12 12 12 11 11 11 11 11 11 10 10 10
11 11 11 11 11 11 11 12 12 12 12 12 12 12 13 13 13 13 13 13 13 13 13 13 12 12 12 12 12 12 12 12 12 11 11 11 11 11 11 10 10 10 10
10 11 11 11 11 11 11 11 11 12 12 12 12 12 12 12 12 12 12 12 12 12 12 12 12 12 12 12 12 12 12 12 12 11 11 11 11 11 11 10 10 10 10
10 10 10 10 10 11 11 11 10 11 11 11 11 11 12 12 12 12 12 12 12 12 12 12 11 11 11 11 11 11 11 11 11 11 11 11 11 11 11 10 10 10 10
9 10 10 10 10 10 10 10 10 10 11 11 11 11 11 11 11 11 11 11 11 11 11 11 11 11 11 11 11 11 11 11 11 11 11 11 11 11 11 10 10 10 10
9 9 9 9 9 10 10 10 10 10 10 10 10 11 11 11 11 11 11 11 10 10 10 10 10 10 11 10 10 11 11 11 11 10 10 10 10 10 10 10 10 10 10
8 9 9 9 9 9 9 9 9 9 9 10 10 10 10 10 10 10 10 10 10 10 10 10 10 10 10 10 10 10 10 10 10 10 10 10 10 10 10 10 10 9 9
8 8 8 8 8 9 8 9 9 9 9 9 9 10 10 10 10 10 10 10 10 10 10 9 9 9 9 9 9 9 9 10 10 10 10 10 10 10 10 10 9 9 9
8 8 8 8 8 8 8 8 8 8 8 9 9 9 9 9 9 9 9 10 9 9 9 9 9 9 9 9 9 9 8 9 9 9 9 9 10 10 9 9 9 9 9
7 7 7 7 7 8 8 8 8 8 8 8 8 8 9 9 9 9 9 9 9 9 9 9 9 9 9 9 9 8 8 8 8 9 9 9 9 9 9 9 9 9 8
7 7 7 7 7 7 7 7 7 7 7 7 7 8 8 8 8 8 8 8 8 8 8 8 8 8 8 8 8 8 8 8 8 8 9 9 9 9 9 9 9 8 8
6 6 6 6 7 7 7 7 7 7 7 7 7 7 7 8 8 8 8 8 8 8 8 8 8 8 8 8 8 8 8 8 8 8 8 8 8 9 8 8 8 8 8
6 6 6 6 6 6 6 6 6 6 6 6 7 7 7 7 7 7 7 7 8 8 8 8 8 8 7 7 8 8 8 8 8 8 8 8 8 8 8 8 8 8 8
Wind_Speed
2 3 8 9 10 10 10 11 12 12 12 13 13 13 13 13 12 12 12 11 11 11 11 12 12 12 12 12 12 12 12 12 12 13 12 12 12 12 11 11 11 10 11
4 5 8 9 10 10 11 12 12 12 12 12 12 12 12 12 12 12 11 11 11 11 11 12 12 11 12 12 12 12 12 12 12 12 11 11 11 11 11 11 10 9 10
4 6 8 9 10 10 11 12 12 12 12 12 12 12 11 11 11 11 11 11 11 11 11 11 11 11 11 11 12 12 12 12 11 11 10 9 9 10 10 10 10 10 10
4 6 8 9 9 10 11 12 12 12 11 11 11 11 11 11 11 11 11 11 11 10 10 10 10 11 11 12 12 12 11 11 11 10 9 8 7 8 9 9 9 9 9
3 5 7 8 9 10 11 12 12 11 11 11 11 11 11 11 11 11 10 10 10 10 9 10 10 10 11 11 11 11 11 11 11 9 8 7 7 8 8 8 8 8 8
3 4 5 7 8 8 10 11 12 11 11 11 10 10 11 11 10 10 10 10 9 9 10 9 10 10 10 10 10 10 10 10 10 9 8 7 6 7 8 8 7 7 7
2 3 4 6 8 8 8 9 11 11 11 11 10 10 10 10 10 10 9 9 9 9 10 10 10 10 9 9 9 10 10 9 9 8 6 6 6 7 7 7 7 6 6
2 2 3 5 5 7 8 8 9 11 11 11 10 9 9 9 9 9 9 9 9 9 9 9 9 9 9 8 9 9 9 8 7 6 5 4 5 6 6 6 6 6 6
2 2 2 3 4 4 6 7 8 8 10 10 10 10 9 9 9 9 9 9 9 9 9 8 8 8 8 8 8 9 8 8 7 5 4 4 5 6 5 5 5 5 5
2 2 1 2 3 3 4 6 7 7 7 9 9 9 9 9 8 8 8 9 9 9 9 9 9 8 8 7 7 8 8 7 6 5 4 4 5 5 5 4 4 4 4
0 0 1 1 2 2 2 4 6 7 6 6 7 8 8 7 7 7 7 8 9 9 9 9 9 9 8 7 7 7 7 6 5 4 4 4 5 4 4 3 3 3 3
2 2 1 1 1 2 2 3 4 5 5 5 6 7 6 6 6 6 7 7 8 9 8 8 8 8 7 7 6 6 6 5 4 3 3 4 4 4 3 2 2 2 2
3 2 2 1 1 1 1 2 2 3 4 4 5 7 6 6 6 5 5 5 6 7 6 7 6 6 6 5 5 5 5 4 3 2 2 3 3 3 3 2 1 1 1
3 3 2 1 1 0 1 1 2 2 3 2 4 6 6 4 4 3 3 4 4 5 5 5 5 5 5 5 5 4 4 3 2 2 1 2 3 3 3 2 2 1 1
4 3 2 2 1 1 1 0 1 2 2 3 3 5 6 4 4 3 3 3 3 4 5 5 5 5 4 4 3 4 3 3 2 2 1 1 2 3 3 3 2 2 2
4 4 3 2 2 1 1 1 1 1 2 3 3 4 6 6 4 3 3 3 3 4 5 5 5 4 3 3 2 3 3 3 3 2 1 1 1 2 2 2 3 2 2
4 3 2 2 1 1 1 1 0 1 2 2 3 4 5 6 6 4 3 2 3 4 4 4 4 4 3 2 2 2 2 2 2 2 1 1 1 1 2 2 2 2 2
3 3 3 2 2 1 1 0 0 0 1 2 2 3 4 5 7 5 3 2 3 4 4 3 3 3 2 2 1 1 1 2 1 1 2 1 1 1 1 1 1 2 2
3 3 3 2 2 2 1 0 0 0 1 1 2 3 3 4 5 5 4 3 4 3 3 2 2 3 3 3 2 1 1 1 1 2 2 1 2 2 1 1 1 2 3
2 2 2 2 2 1 1 0 0 0 1 1 2 3 3 3 4 5 4 4 4 3 3 2 2 1 3 3 2 0 1 1 1 2 2 1 2 2 2 1 1 2 3
1 2 2 2 1 2 1 1 1 1 1 1 2 3 3 4 4 4 4 4 4 4 4 4 3 2 2 3 2 0 2 2 2 2 2 2 2 3 3 2 1 1 2
1 1 2 2 1 1 1 1 2 1 1 1 1 2 3 3 3 4 4 4 4 4 4 5 4 2 1 3 3 2 1 2 2 2 2 3 3 2 2 3 2 2 2
1 1 1 1 1 1 1 1 1 1 1 0 1 1 1 2 3 4 4 4 4 4 5 5 5 5 3 2 3 4 3 3 2 2 2 2 3 3 2 2 3 3 3
1 1 1 0 0 1 1 2 2 2 2 2 1 1 1 2 3 4 4 4 4 4 4 5 4 4 5 4 2 2 2 2 2 1 2 2 3 4 3 3 2 3 4
1 0 1 1 1 1 1 2 2 2 1 0 0 1 1 1 2 3 4 4 4 3 4 5 4 4 4 5 4 3 2 1 2 2 3 2 2 3 3 3 3 3 4
1 1 1 1 1 1 1 1 1 2 2 2 1 2 1 1 2 3 4 4 4 3 4 5 5 5 4 4 4 4 4 4 4 3 4 3 3 2 2 2 3 3 4
Wind_Direction
223 205 176 157 151 147 143 140 135 131 130 128 127 124 123 124 123 121 119 118 117 118 120 116 113 109 108 107 107 106 103 99 95 93 91 90 89 91 89 88 86 82 82
180 170 163 158 153 150 149 145 141 135 133 132 130 127 126 127 126 124 121 120 120 119 120 118 115 112 110 110 107 105 104 102 98 93 88 87 90 90 89 88 88 86 84
146 157 156 157 157 151 148 148 145 140 137 134 133 131 130 129 130 128 124 123 122 119 118 120 119 116 114 113 112 109 106 104 101 94 86 79 84 88 88 88 87 84 82
141 151 154 153 157 154 150 147 146 144 143 139 136 137 135 133 133 131 128 127 124 122 119 116 119 120 118 115 114 113 107 105 103 95 84 79 81 90 90 89 88 85 80
129 140 154 155 154 155 154 152 148 145 144 143 142 140 140 137 137 135 133 131 128 125 121 119 118 121 120 116 117 116 111 106 101 95 86 80 81 90 92 92 90 87 84
124 135 151 158 157 154 156 156 153 152 149 144 143 145 143 142 141 140 138 135 131 129 126 123 122 121 118 118 119 119 115 111 99 92 88 83 84 94 95 92 92 91 88
127 130 152 154 161 159 153 159 160 157 152 149 147 146 147 146 145 144 142 137 135 131 128 125 124 121 122 120 120 120 118 112 104 97 92 89 97 100 97 95 88 90 89
121 129 145 149 152 165 160 155 162 162 158 155 153 151 149 147 146 147 146 143 140 139 133 128 127 127 125 126 122 121 119 116 112 105 99 98 108 109 104 95 89 82 84
80 76 115 138 140 152 160 160 155 161 164 161 159 157 153 149 147 150 151 150 146 142 136 135 135 134 129 127 127 123 120 117 113 108 107 108 119 118 111 100 93 81 77
84 67 52 119 131 133 152 156 154 147 156 164 160 156 152 149 146 150 152 153 149 145 140 141 141 138 134 127 130 128 119 113 110 112 113 120 125 124 116 106 98 87 76
117 109 51 83 120 124 143 153 145 147 143 147 153 151 146 143 143 143 148 154 153 149 146 145 142 137 129 124 126 124 116 112 110 110 121 130 139 137 128 117 103 97 83
226 220 175 130 94 140 156 149 145 141 139 138 146 145 143 138 138 141 142 148 151 148 145 145 139 127 116 113 117 115 110 110 110 111 133 147 151 150 144 140 119 111 83
225 232 207 186 144 110 132 140 142 140 141 141 148 145 138 131 130 130 128 131 136 135 126 124 116 114 115 117 118 118 116 110 109 116 136 153 160 166 161 171 164 138 77
224 235 237 198 171 153 124 153 159 148 145 145 157 156 145 137 135 129 130 123 122 126 126 122 119 116 116 121 125 124 120 116 107 102 118 154 183 195 189 198 204 198 278
221 229 237 222 197 207 148 162 180 170 162 159 156 162 156 147 152 142 134 137 132 135 139 135 132 130 127 123 124 131 129 123 122 110 113 154 197 218 211 211 219 239 256
231 230 221 220 232 207 192 203 227 175 165 156 165 170 164 157 154 146 144 143 142 148 149 146 149 145 140 134 132 138 143 137 131 129 121 166 229 230 226 226 228 240 258
235 233 213 212 227 226 216 198 179 201 169 162 167 163 165 159 156 153 152 150 151 149 145 140 138 134 138 137 146 142 147 142 133 136 143 168 230 260 256 246 245 257 272
233 224 215 213 199 217 240 226 213 242 189 165 166 156 161 162 158 151 154 163 155 144 142 159 164 158 156 159 167 193 155 144 148 166 165 187 194 245 280 267 266 275 285
212 204 200 189 182 202 218 248 217 271 257 188 171 156 161 162 161 154 160 166 158 152 155 174 184 174 170 167 172 187 201 183 192 194 198 214 213 198 205 265 285 295 304
202 187 178 161 171 164 146 130 142 4 295 200 172 164 160 163 168 161 167 169 166 168 173 164 181 162 171 169 165 191 286 242 203 206 217 218 227 209 196 215 276 298 304
189 160 160 160 165 133 155 190 210 234 259 202 183 168 167 164 172 179 176 168 172 185 185 176 173 153 178 161 141 346 313 262 229 230 219 209 235 220 196 205 228 273 300
172 175 180 184 176 167 204 217 225 218 222 208 196 175 170 166 173 189 183 182 182 181 181 184 171 166 222 186 163 166 260 290 260 234 221 211 223 222 210 219 223 242 281
179 191 202 206 181 192 207 193 108 72 54 210 174 178 194 186 189 197 184 184 190 188 194 194 183 180 194 222 197 176 177 221 248 261 229 211 213 221 221 223 223 236 251
255 252 258 231 151 188 184 193 176 176 218 243 232 213 211 197 198 195 186 183 196 199 197 203 195 195 187 207 218 212 203 177 181 255 262 227 221 224 221 225 229 232 239
265 27 335 345 330 272 247 216 192 208 227 208 197 190 214 212 206 207 191 189 198 205 207 200 197 198 201 204 208 192 191 206 205 198 241 246 249 235 221 218 220 227 231
357 33 41 347 293 290 285 258 203 206 203 184 216 212 237 247 232 220 209 200 205 208 214 204 200 199 206 206 212 200 188 184 192 199 220 237 244 255 239 228 216 220 217
Height
1498 1500 1501 1503 1505 1507 1508 1510 1511 1512 1514 1515 1516 1517 1518 1519 1519 1520 1521 1522 1523 1524 1525 1526 1527 1527 1528 1529 1529 1530 1531 1532 1532 1533 1533 1534 1534 1534 1535 1535 1535 1535 1535
1497 1499 1501 1502 1504 1506 1508 1509 1511 1512 1513 1515 1516 1517 1518 1519 1519 1520 1521 1522 1523 1524 1525 1526 1527 1527 1528 1529 1529 1530 1531 1532 1532 1533 1533 1534 1534 1535 1535 1535 1536 1536 1536
1497 1498 1500 1502 1503 1505 1507 1509 1510 1512 1513 1514 1515 1516 1518 1519 1520 1520 1521 1522 1523 1524 1525 1526 1527 1527 1528 1529 1529 1530 1531 1532 1532 1533 1533 1534 1534 1535 1535 1536 1536 1536 1536
1496 1498 1499 1501 1503 1504 1506 1508 1509 1511 1512 1514 1515 1516 1517 1518 1519 1520 1521 1522 1523 1524 1525 1525 1526 1527 1528 1529 1529 1530 1531 1531 1532 1533 1533 1534 1534 1535 1535 1536 1536 1536 1536
1496 1498 1499 1501 1502 1504 1505 1507 1509 1510 1512 1513 1514 1516 1517 1518 1519 1520 1521 1521 1522 1523 1524 1525 1526 1527 1528 1529 1529 1530 1531 1531 1532 1533 1533 1534 1534 1535 1535 1535 1535 1535 1535
1495 1497 1499 1500 1502 1503 1505 1506 1508 1509 1511 1512 1513 1515 1516 1517 1518 1519 1520 1521 1522 1523 1524 1525 1526 1527 1527 1528 1529 1530 1530 1531 1531 1532 1533 1533 1534 1535 1535 1535 1535 1535 1535
1494 1496 1498 1499 1501 1502 1504 1505 1507 1508 1510 1511 1512 1514 1515 1516 1517 1518 1519 1520 1521 1522 1523 1524 1525 1526 1527 1528 1529 1529 1530 1531 1531 1532 1532 1533 1533 1534 1535 1534 1534 1535 1534
1494 1495 1496 1498 1499 1501 1503 1504 1506 1507 1508 1510 1511 1512 1514 1515 1516 1517 1518 1519 1520 1521 1522 1523 1524 1525 1526 1527 1528 1529 1529 1530 1531 1531 1531 1532 1533 1533 1534 1534 1534 1534 1534
1493 1493 1495 1496 1498 1499 1501 1503 1504 1506 1507 1508 1510 1511 1512 1513 1514 1516 1517 1518 1519 1520 1521 1522 1523 1524 1525 1526 1527 1528 1528 1529 1530 1530 1531 1531 1532 1533 1533 1533 1533 1533 1533
1492 1492 1493 1495 1496 1497 1499 1501 1502 1504 1505 1507 1508 1509 1511 1512 1513 1514 1515 1516 1517 1518 1519 1520 1521 1523 1524 1525 1526 1526 1527 1528 1529 1529 1530 1530 1531 1532 1532 1532 1532 1532 1532
1490 1490 1491 1493 1494 1495 1497 1499 1500 1502 1503 1505 1507 1508 1509 1510 1511 1512 1513 1514 1515 1517 1518 1519 1520 1521 1522 1523 1524 1525 1526 1527 1527 1528 1528 1529 1530 1530 1531 1531 1531 1531 1530
1487 1488 1489 1490 1492 1493 1495 1496 1498 1499 1501 1502 1504 1506 1507 1508 1509 1510 1511 1512 1513 1514 1516 1517 1518 1519 1521 1522 1523 1524 1524 1525 1526 1526 1527 1528 1528 1529 1529 1529 1529 1529 1529
1484 1485 1487 1488 1489 1491 1492 1493 1495 1497 1498 1499 1500 1502 1504 1505 1507 1508 1509 1510 1511 1512 1513 1515 1516 1517 1518 1520 1521 1522 1523 1523 1524 1525 1525 1526 1526 1527 1527 1527 1528 1528 1528
1483 1483 1484 1485 1487 1488 1489 1491 1492 1493 1494 1495 1497 1498 1500 1502 1504 1505 1506 1507 1508 1509 1511 1512 1513 1515 1516 1517 1518 1519 1521 1521 1522 1523 1523 1524 1524 1525 1525 1526 1526 1526 1526
1480 1480 1481 1483 1484 1486 1487 1488 1489 1490 1491 1493 1494 1495 1497 1499 1500 1502 1503 1504 1505 1507 1508 1510 1511 1512 1514 1515 1516 1517 1518 1519 1520 1521 1521 1522 1522 1523 1523 1523 1524 1524 1524
1477 1478 1479 1480 1482 1483 1484 1485 1485 1487 1488 1490 1491 1492 1494 1496 1497 1498 1500 1501 1503 1504 1506 1507 1508 1509 1511 1512 1513 1514 1516 1517 1517 1518 1519 1520 1520 1520 1521 1521 1521 1522 1522
1474 1475 1476 1477 1478 1480 1481 1482 1483 1484 1485 1486 1487 1489 1490 1492 1494 1496 1497 1498 1500 1501 1503 1504 1505 1506 1508 1509 1510 1511 1513 1514 1515 1516 1516 1517 1517 1518 1518 1519 1519 1519 1520
1471 1472 1473 1475 1476 1477 1479 1480 1480 1481 1482 1483 1484 1485 1487 1489 1491 1493 1494 1496 1497 1498 1500 1501 1502 1503 1504 1506 1507 1508 1510 1511 1512 1513 1514 1514 1515 1515 1515 1516 1516 1517 1517
1468 1469 1471 1472 1473 1474 1476 1477 1478 1479 1479 1480 1481 1482 1484 1486 1488 1489 1491 1492 1494 1495 1496 1498 1498 1499 1501 1503 1504 1505 1506 1508 1509 1510 1510 1511 1512 1512 1512 1513 1513 1514 1514
1466 1467 1468 1469 1470 1471 1473 1473 1474 1475 1476 1477 1478 1479 1481 1483 1484 1486 1488 1489 1491 1492 1493 1495 1496 1496 1498 1500 1501 1502 1503 1504 1505 1506 1507 1508 1508 1509 1509 1510 1510 1511 1511
1463 1464 1466 1467 1468 1469 1469 1470 1470 1471 1472 1473 1474 1476 1478 1480 1481 1483 1484 1485 1487 1488 1489 1491 1493 1493 1494 1496 1498 1498 1500 1500 1501 1502 1503 1504 1505 1506 1506 1507 1507 1508 1508
1460 1462 1463 1465 1465 1466 1467 1468 1469 1469 1469 1470 1471 1472 1474 1476 1478 1479 1480 1481 1483 1485 1486 1488 1489 1489 1492 1493 1494 1495 1496 1497 1497 1498 1499 1500 1501 1502 1503 1503 1504 1504 1505
1458 1460 1461 1462 1463 1465 1466 1466 1466 1466 1466 1467 1468 1469 1471 1473 1475 1476 1477 1478 1480 1481 1482 1483 1485 1486 1488 1489 1491 1492 1492 1491 1493 1494 1495 1496 1497 1498 1499 1500 1500 1501 1501
1457 1458 1460 1460 1462 1463 1464 1464 1462 1462 1463 1464 1465 1466 1468 1470 1472 1473 1474 1475 1476 1477 1479 1480 1481 1483 1484 1485 1487 1488 1489 1488 1489 1490 1491 1492 1493 1494 1495 1496 1497 1497 1497
1456 1456 1457 1458 1459 1460 1461 1461 1460 1461 1462 1462 1463 1463 1465 1466 1468 1469 1470 1472 1473 1474 1475 1476 1477 1479 1480 1482 1483 1483 1484 1485 1486 1487 1487 1488 1489 1491 1491 1492 1493 1493 1494
1454 1455 1456 1456 1457 1457 1458 1458 1458 1458 1459 1459 1459 1460 1461 1462 1464 1465 1467 1468 1469 1470 1471 1471 1473 1474 1476 1477 1479 1479 1480 1481 1482 1484 1483 1483 1484 1486 1487 1488 1489 1489 1490